Location: Dennis Manor
(64.8292°N, 147.5397°W)
Time: 09:15:07
(UTC+00:00)

Envisat - Pass Details

Date: 31 October 2020
Orbit: 764 x 766 km, 98.1° (Epoch: 05 December)

Event Time Altitude Azimuth Distance (km) Brightness Sun altitude
Rises 16:05:41 0° 19° (NNE) 3,251 6.3 -9.7°
Reaches altitude 10° 16:08:01 10° 22° (NNE) 2,320 5.6 -9.4°
Maximum altitude 16:13:06 65° 104° (ESE) 847 3.6 -8.9°
Drops below altitude 10° 16:18:10 10° 187° (S) 2,305 5.6 -8.4°
Sets 16:20:29 0° 190° (S) 3,227 6.3 -8.2°
